date,time,SUV Intensity [MED/Hr],UV Index,Daily total [MED],Since Last [MED]
28/04/2023,00:01:07,-0.000,0.0,0.0,0.0
28/04/2023,00:02:07,0.001,0.0,0.0,0.0
28/04/2023,00:03:07,0.001,0.0,0.0,0.0
28/04/2023,00:04:07,0.000,0.0,0.0,0.0
28/04/2023,00:05:07,-0.001,0.0,0.0,0.0
28/04/2023,00:06:07,0.000,0.0,0.0,0.0
28/04/2023,00:07:07,-0.000,0.0,0.0,0.0
28/04/2023,00:08:08,0.000,0.0,0.0,0.0
28/04/2023,00:09:08,0.000,0.0,0.0,0.0
28/04/2023,00:10:07,0.000,0.0,0.0,0.0
28/04/2023,00:11:07,0.000,0.0,0.0,0.0
28/04/2023,00:12:08,0.001,0.0,0.0,0.0
28/04/2023,00:13:07,0.001,0.0,0.0,0.0
28/04/2023,00:14:08,0.000,0.0,0.0,0.0
28/04/2023,00:15:07,0.000,0.0,0.0,0.0
28/04/2023,00:16:07,-0.000,0.0,0.0,0.0
28/04/2023,00:17:07,0.000,0.0,0.0,0.0
28/04/2023,00:18:07,-0.000,0.0,0.0,0.0
28/04/2023,00:19:07,-0.000,0.0,0.0,0.0
28/04/2023,00:20:07,0.000,0.0,0.0,0.0
28/04/2023,00:21:07,-0.000,0.0,0.0,0.0
28/04/2023,00:22:07,0.000,0.0,0.0,0.0
28/04/2023,00:23:08,-0.001,0.0,0.0,0.0
28/04/2023,00:24:07,0.000,0.0,0.0,0.0
28/04/2023,00:25:08,0.000,0.0,0.0,0.0
28/04/2023,00:26:08,-0.000,0.0,0.0,0.0
28/04/2023,00:27:08,0.000,0.0,0.0,0.0
28/04/2023,00:28:08,0.000,0.0,0.0,0.0
28/04/2023,00:29:07,0.000,0.0,0.0,0.0
28/04/2023,00:30:07,-0.001,0.0,0.0,0.0
28/04/2023,00:31:07,0.000,0.0,0.0,0.0
28/04/2023,00:32:07,0.000,0.0,0.0,0.0
28/04/2023,00:33:07,0.000,0.0,0.0,0.0
28/04/2023,00:34:08,0.000,0.0,0.0,0.0
28/04/2023,00:35:08,-0.000,0.0,0.0,0.0
28/04/2023,00:36:08,-0.000,0.0,0.0,0.0
28/04/2023,00:37:08,0.000,0.0,0.0,0.0
28/04/2023,00:38:08,0.000,0.0,0.0,0.0
28/04/2023,00:39:08,0.000,0.0,0.0,0.0
28/04/2023,00:40:07,0.000,0.0,0.0,0.0
28/04/2023,00:41:29,0.000,0.0,0.0,0.0
28/04/2023,00:43:08,0.000,0.0,0.0,0.0
28/04/2023,00:44:07,0.001,0.0,0.0,0.0
28/04/2023,00:45:08,-0.001,0.0,0.0,0.0
28/04/2023,00:46:07,-0.000,0.0,0.0,0.0
28/04/2023,00:47:08,0.000,0.0,0.0,0.0
28/04/2023,00:48:08,0.001,0.0,0.0,0.0
28/04/2023,00:49:08,0.000,0.0,0.0,0.0
28/04/2023,00:50:07,-0.000,0.0,0.0,0.0
28/04/2023,00:51:07,0.000,0.0,0.0,0.0
28/04/2023,00:52:07,0.000,0.0,0.0,0.0
28/04/2023,00:53:08,0.001,0.0,0.0,0.0
28/04/2023,00:54:08,-0.000,0.0,0.0,0.0
28/04/2023,00:55:07,-0.001,0.0,0.0,0.0
28/04/2023,00:56:08,-0.001,0.0,0.0,0.0
28/04/2023,00:57:08,-0.000,0.0,0.0,0.0
28/04/2023,00:58:08,0.000,0.0,0.0,0.0
28/04/2023,00:59:07,0.000,0.0,0.0,0.0
28/04/2023,01:00:08,-0.000,0.0,0.0,0.0
28/04/2023,01:01:08,0.000,0.0,0.0,0.0
28/04/2023,01:02:07,-0.001,0.0,0.0,0.0
28/04/2023,01:03:07,0.000,0.0,0.0,0.0
28/04/2023,01:04:07,0.001,0.0,0.0,0.0
28/04/2023,01:05:36,-0.001,0.0,0.0,0.0
28/04/2023,01:07:08,0.000,0.0,0.0,0.0
28/04/2023,01:08:08,0.000,0.0,0.0,0.0
28/04/2023,01:09:08,0.000,0.0,0.0,0.0
28/04/2023,01:10:08,-0.000,0.0,0.0,0.0
28/04/2023,01:11:07,0.000,0.0,0.0,0.0
28/04/2023,01:12:07,-0.000,0.0,0.0,0.0
28/04/2023,01:13:07,-0.000,0.0,0.0,0.0
28/04/2023,01:14:07,-0.001,0.0,0.0,0.0
28/04/2023,01:15:07,0.000,0.0,0.0,0.0
28/04/2023,01:16:08,0.000,0.0,0.0,0.0
28/04/2023,01:17:07,-0.000,0.0,0.0,0.0
28/04/2023,01:18:07,0.000,0.0,0.0,0.0
28/04/2023,01:19:08,0.001,0.0,0.0,0.0
28/04/2023,01:20:08,0.000,0.0,0.0,0.0
28/04/2023,01:21:07,0.001,0.0,0.0,0.0
28/04/2023,01:22:08,0.000,0.0,0.0,0.0
28/04/2023,01:23:08,-0.001,0.0,0.0,0.0
28/04/2023,01:24:08,0.000,0.0,0.0,0.0
28/04/2023,01:25:08,0.000,0.0,0.0,0.0
28/04/2023,01:26:08,-0.001,0.0,0.0,0.0
28/04/2023,01:27:07,-0.000,0.0,0.0,0.0
28/04/2023,01:28:07,-0.001,0.0,0.0,0.0
28/04/2023,01:29:08,-0.000,0.0,0.0,0.0
28/04/2023,01:30:12,-0.000,0.0,0.0,0.0
28/04/2023,01:31:09,0.000,0.0,0.0,0.0
28/04/2023,01:32:08,-0.001,0.0,0.0,0.0
28/04/2023,01:33:08,0.000,0.0,0.0,0.0
28/04/2023,01:34:08,-0.000,0.0,0.0,0.0
28/04/2023,01:35:07,-0.000,0.0,0.0,0.0
28/04/2023,01:36:07,-0.000,0.0,0.0,0.0
28/04/2023,01:37:08,0.000,0.0,0.0,0.0
28/04/2023,01:38:08,0.000,0.0,0.0,0.0
28/04/2023,01:39:08,0.000,0.0,0.0,0.0
28/04/2023,01:40:08,-0.000,0.0,0.0,0.0
28/04/2023,01:41:08,-0.001,0.0,0.0,0.0
28/04/2023,01:42:07,-0.000,0.0,0.0,0.0
28/04/2023,01:43:08,0.000,0.0,0.0,0.0
28/04/2023,01:44:07,0.001,0.0,0.0,0.0
28/04/2023,01:45:07,-0.000,0.0,0.0,0.0
28/04/2023,01:46:07,0.000,0.0,0.0,0.0
28/04/2023,01:47:08,0.000,0.0,0.0,0.0
28/04/2023,01:48:08,-0.001,0.0,0.0,0.0
28/04/2023,01:49:08,-0.000,0.0,0.0,0.0
28/04/2023,01:50:07,-0.000,0.0,0.0,0.0
28/04/2023,01:51:08,0.001,0.0,0.0,0.0
28/04/2023,01:52:08,-0.000,0.0,0.0,0.0
28/04/2023,01:53:08,-0.001,0.0,0.0,0.0
28/04/2023,01:54:08,-0.000,0.0,0.0,0.0
28/04/2023,01:55:08,0.000,0.0,0.0,0.0
28/04/2023,01:56:08,-0.000,0.0,0.0,0.0
28/04/2023,01:57:07,-0.000,0.0,0.0,0.0
28/04/2023,01:58:07,-0.000,0.0,0.0,0.0
28/04/2023,01:59:08,-0.000,0.0,0.0,0.0
28/04/2023,02:00:07,-0.001,0.0,0.0,0.0
28/04/2023,02:01:07,-0.000,0.0,0.0,0.0
28/04/2023,02:02:08,-0.000,0.0,0.0,0.0
28/04/2023,02:03:07,-0.001,0.0,0.0,0.0
28/04/2023,02:04:07,0.000,0.0,0.0,0.0
28/04/2023,02:05:08,-0.000,0.0,0.0,0.0
28/04/2023,02:06:08,-0.000,0.0,0.0,0.0
28/04/2023,02:07:08,-0.001,0.0,0.0,0.0
28/04/2023,02:08:08,-0.001,0.0,0.0,0.0
28/04/2023,02:09:08,-0.000,0.0,0.0,0.0
28/04/2023,02:10:08,0.001,0.0,0.0,0.0
28/04/2023,02:11:08,0.000,0.0,0.0,0.0
28/04/2023,02:12:08,0.000,0.0,0.0,0.0
28/04/2023,02:13:08,-0.000,0.0,0.0,0.0
28/04/2023,02:14:07,0.001,0.0,0.0,0.0
28/04/2023,02:15:07,0.000,0.0,0.0,0.0
28/04/2023,02:16:07,-0.000,0.0,0.0,0.0
28/04/2023,02:17:08,-0.001,0.0,0.0,0.0
28/04/2023,02:18:08,-0.000,0.0,0.0,0.0
28/04/2023,02:19:07,-0.000,0.0,0.0,0.0
28/04/2023,02:20:07,0.001,0.0,0.0,0.0
28/04/2023,02:21:08,-0.001,0.0,0.0,0.0
28/04/2023,02:22:08,0.000,0.0,0.0,0.0
28/04/2023,02:23:08,-0.000,0.0,0.0,0.0
28/04/2023,02:24:08,-0.000,0.0,0.0,0.0
28/04/2023,02:25:07,-0.001,0.0,0.0,0.0
28/04/2023,02:26:07,-0.000,0.0,0.0,0.0
28/04/2023,02:27:08,-0.001,0.0,0.0,0.0
28/04/2023,02:28:07,0.000,0.0,0.0,0.0
28/04/2023,02:29:08,-0.000,0.0,0.0,0.0
28/04/2023,02:30:08,-0.001,0.0,0.0,0.0
28/04/2023,02:31:08,0.000,0.0,0.0,0.0
28/04/2023,02:32:07,-0.000,0.0,0.0,0.0
28/04/2023,02:33:08,-0.001,0.0,0.0,0.0
28/04/2023,02:34:08,-0.000,0.0,0.0,0.0
28/04/2023,02:35:07,-0.000,0.0,0.0,0.0
28/04/2023,02:36:07,0.000,0.0,0.0,0.0
28/04/2023,02:37:07,-0.000,0.0,0.0,0.0
28/04/2023,02:38:07,-0.000,0.0,0.0,0.0
28/04/2023,02:39:08,-0.000,0.0,0.0,0.0
28/04/2023,02:40:08,0.000,0.0,0.0,0.0
28/04/2023,02:41:08,-0.000,0.0,0.0,0.0
28/04/2023,02:42:08,-0.000,0.0,0.0,0.0
28/04/2023,02:43:08,-0.000,0.0,0.0,0.0
28/04/2023,02:44:08,-0.000,0.0,0.0,0.0
28/04/2023,02:45:07,-0.000,0.0,0.0,0.0
28/04/2023,02:46:08,0.000,0.0,0.0,0.0
28/04/2023,02:47:08,-0.001,0.0,0.0,0.0
28/04/2023,02:48:08,0.000,0.0,0.0,0.0
28/04/2023,02:49:07,-0.000,0.0,0.0,0.0
28/04/2023,02:50:08,-0.000,0.0,0.0,0.0
28/04/2023,02:51:08,-0.000,0.0,0.0,0.0
28/04/2023,02:52:08,-0.001,0.0,0.0,0.0
28/04/2023,02:53:08,-0.001,0.0,0.0,0.0
28/04/2023,02:54:08,-0.000,0.0,0.0,0.0
28/04/2023,02:55:08,-0.000,0.0,0.0,0.0
28/04/2023,02:56:07,-0.001,0.0,0.0,0.0
28/04/2023,02:57:07,0.001,0.0,0.0,0.0
28/04/2023,02:58:08,-0.000,0.0,0.0,0.0
28/04/2023,02:59:08,-0.000,0.0,0.0,0.0
28/04/2023,03:00:07,0.001,0.0,0.0,0.0
28/04/2023,03:01:07,-0.000,0.0,0.0,0.0
28/04/2023,03:02:08,-0.000,0.0,0.0,0.0
28/04/2023,03:03:08,-0.000,0.0,0.0,0.0
28/04/2023,03:04:08,-0.000,0.0,0.0,0.0
28/04/2023,03:05:08,-0.000,0.0,0.0,0.0
28/04/2023,03:06:08,0.000,0.0,0.0,0.0
28/04/2023,03:07:08,-0.001,0.0,0.0,0.0
28/04/2023,03:08:08,-0.001,0.0,0.0,0.0
28/04/2023,03:09:08,-0.000,0.0,0.0,0.0
28/04/2023,03:10:08,-0.000,0.0,0.0,0.0
28/04/2023,03:11:07,-0.001,0.0,0.0,0.0
28/04/2023,03:12:08,-0.001,0.0,0.0,0.0
28/04/2023,03:13:08,0.000,0.0,0.0,0.0
28/04/2023,03:14:07,0.001,0.0,0.0,0.0
28/04/2023,03:15:07,-0.000,0.0,0.0,0.0
28/04/2023,03:16:08,-0.000,0.0,0.0,0.0
28/04/2023,03:17:08,-0.000,0.0,0.0,0.0
28/04/2023,03:18:08,-0.000,0.0,0.0,0.0
28/04/2023,03:19:08,-0.001,0.0,0.0,0.0
28/04/2023,03:20:08,-0.000,0.0,0.0,0.0
28/04/2023,03:21:08,-0.000,0.0,0.0,0.0
28/04/2023,03:22:08,0.000,0.0,0.0,0.0
28/04/2023,03:23:07,-0.000,0.0,0.0,0.0
28/04/2023,03:24:08,-0.001,0.0,0.0,0.0
28/04/2023,03:25:08,-0.000,0.0,0.0,0.0
28/04/2023,03:26:08,-0.000,0.0,0.0,0.0
28/04/2023,03:27:08,-0.001,0.0,0.0,0.0
28/04/2023,03:28:12,-0.001,0.0,0.0,0.0
28/04/2023,03:29:08,-0.000,0.0,0.0,0.0
28/04/2023,03:30:07,-0.000,0.0,0.0,0.0
28/04/2023,03:31:09,-0.000,0.0,0.0,0.0
28/04/2023,03:32:08,-0.000,0.0,0.0,0.0
28/04/2023,03:33:08,-0.001,0.0,0.0,0.0
28/04/2023,03:34:08,-0.000,0.0,0.0,0.0
28/04/2023,03:35:08,-0.000,0.0,0.0,0.0
28/04/2023,03:36:08,0.000,0.0,0.0,0.0
28/04/2023,03:37:07,-0.000,0.0,0.0,0.0
28/04/2023,03:38:08,-0.000,0.0,0.0,0.0
28/04/2023,03:39:08,0.000,0.0,0.0,0.0
28/04/2023,03:40:08,0.000,0.0,0.0,0.0
28/04/2023,03:41:08,-0.000,0.0,0.0,0.0
28/04/2023,03:42:07,-0.001,0.0,0.0,0.0
28/04/2023,03:43:08,0.000,0.0,0.0,0.0
28/04/2023,03:44:08,-0.001,0.0,0.0,0.0
28/04/2023,03:45:08,-0.000,0.0,0.0,0.0
28/04/2023,03:46:08,-0.000,0.0,0.0,0.0
28/04/2023,03:47:08,-0.000,0.0,0.0,0.0
28/04/2023,03:48:07,-0.002,0.0,0.0,0.0
28/04/2023,03:49:07,0.001,0.0,0.0,0.0
28/04/2023,03:50:08,-0.000,0.0,0.0,0.0
28/04/2023,03:51:08,-0.001,0.0,0.0,0.0
28/04/2023,03:52:08,-0.001,0.0,0.0,0.0
28/04/2023,03:53:08,-0.000,0.0,0.0,0.0
28/04/2023,03:54:08,-0.000,0.0,0.0,0.0
28/04/2023,03:55:08,-0.000,0.0,0.0,0.0
28/04/2023,03:56:08,-0.000,0.0,0.0,0.0
28/04/2023,03:57:08,-0.001,0.0,0.0,0.0
28/04/2023,03:58:08,-0.001,0.0,0.0,0.0
28/04/2023,03:59:08,-0.001,0.0,0.0,0.0
28/04/2023,04:00:08,0.000,0.0,0.0,0.0
28/04/2023,04:01:08,-0.000,0.0,0.0,0.0
28/04/2023,04:02:08,0.000,0.0,0.0,0.0
28/04/2023,04:03:08,0.001,0.0,0.0,0.0
28/04/2023,04:04:08,-0.000,0.0,0.0,0.0
28/04/2023,04:05:08,-0.000,0.0,0.0,0.0
28/04/2023,04:06:07,-0.000,0.0,0.0,0.0
28/04/2023,04:07:07,-0.000,0.0,0.0,0.0
28/04/2023,04:08:07,-0.000,0.0,0.0,0.0
28/04/2023,04:09:08,-0.001,0.0,0.0,0.0
28/04/2023,04:10:10,0.000,0.0,0.0,0.0
28/04/2023,04:11:08,-0.000,0.0,0.0,0.0
28/04/2023,04:12:08,0.000,0.0,0.0,0.0
28/04/2023,04:13:07,-0.001,0.0,0.0,0.0
28/04/2023,04:14:08,-0.001,0.0,0.0,0.0
28/04/2023,04:15:08,-0.000,0.0,0.0,0.0
28/04/2023,04:16:08,0.001,0.0,0.0,0.0
28/04/2023,04:17:08,-0.000,0.0,0.0,0.0
28/04/2023,04:18:08,0.001,0.0,0.0,0.0
28/04/2023,04:19:08,-0.000,0.0,0.0,0.0
28/04/2023,04:20:08,-0.000,0.0,0.0,0.0
28/04/2023,04:21:08,-0.001,0.0,0.0,0.0
28/04/2023,04:22:08,-0.001,0.0,0.0,0.0
28/04/2023,04:23:08,0.000,0.0,0.0,0.0
28/04/2023,04:24:08,0.000,0.0,0.0,0.0
28/04/2023,04:25:08,0.000,0.0,0.0,0.0
28/04/2023,04:26:08,0.000,0.0,0.0,0.0
28/04/2023,04:27:08,0.001,0.0,0.0,0.0
28/04/2023,04:28:08,0.000,0.0,0.0,0.0
28/04/2023,04:29:08,0.001,0.0,0.0,0.0
28/04/2023,04:30:08,0.000,0.0,0.0,0.0
28/04/2023,04:31:08,0.000,0.0,0.0,0.0
28/04/2023,04:32:08,0.001,0.0,0.0,0.0
28/04/2023,04:33:08,-0.000,0.0,0.0,0.0
28/04/2023,04:34:08,0.000,0.0,0.0,0.0
28/04/2023,04:35:08,0.000,0.0,0.0,0.0
28/04/2023,04:36:08,-0.000,0.0,0.0,0.0
28/04/2023,04:37:08,0.000,0.0,0.0,0.0
28/04/2023,04:38:08,0.000,0.0,0.0,0.0
28/04/2023,04:39:08,0.001,0.0,0.0,0.0
28/04/2023,04:40:08,0.000,0.0,0.0,0.0
28/04/2023,04:41:08,-0.001,0.0,0.0,0.0
28/04/2023,04:42:08,0.000,0.0,0.0,0.0
28/04/2023,04:43:08,0.000,0.0,0.0,0.0
28/04/2023,04:44:08,0.000,0.0,0.0,0.0
28/04/2023,04:45:07,0.002,0.0,0.0,0.0
28/04/2023,04:46:08,0.001,0.0,0.0,0.0
28/04/2023,04:47:08,-0.000,0.0,0.0,0.0
28/04/2023,04:48:08,0.001,0.0,0.0,0.0
28/04/2023,04:49:08,0.001,0.0,0.0,0.0
28/04/2023,04:50:08,0.002,0.0,0.0,0.0
28/04/2023,04:51:08,0.001,0.0,0.0,0.0
28/04/2023,04:52:08,0.001,0.0,0.0,0.0
28/04/2023,04:53:08,0.002,0.0,0.0,0.0
28/04/2023,04:54:08,0.002,0.0,0.0,0.0
28/04/2023,04:55:08,0.001,0.0,0.0,0.0
28/04/2023,04:56:08,0.002,0.0,0.0,0.0
28/04/2023,04:57:08,0.003,0.0,0.0,0.0
28/04/2023,04:58:08,0.003,0.0,0.0,0.0
28/04/2023,04:59:08,0.003,0.0,0.0,0.0
28/04/2023,05:00:08,0.003,0.0,0.0,0.0
28/04/2023,05:01:08,0.003,0.0,0.0,0.0
28/04/2023,05:02:08,0.002,0.0,0.0,0.0
28/04/2023,05:03:08,0.003,0.0,0.0,0.0
28/04/2023,05:04:08,0.003,0.0,0.0,0.0
28/04/2023,05:05:07,0.003,0.0,0.0,0.0
28/04/2023,05:06:08,0.004,0.0,0.0,0.0
28/04/2023,05:07:08,0.004,0.0,0.0,0.0
28/04/2023,05:08:08,0.005,0.0,0.0,0.0
28/04/2023,05:09:08,0.006,0.0,0.0,0.0
28/04/2023,05:10:08,0.006,0.0,0.0,0.0
28/04/2023,05:11:08,0.004,0.0,0.0,0.0
28/04/2023,05:12:08,0.006,0.0,0.0,0.0
28/04/2023,05:13:08,0.006,0.0,0.0,0.0
28/04/2023,05:14:09,0.006,0.0,0.0,0.0
28/04/2023,05:15:08,0.005,0.0,0.0,0.0
28/04/2023,05:16:08,0.005,0.0,0.0,0.0
28/04/2023,05:17:08,0.006,0.0,0.0,0.0
28/04/2023,05:18:08,0.006,0.0,0.0,0.0
28/04/2023,05:19:08,0.007,0.0,0.0,0.0
28/04/2023,05:20:08,0.007,0.0,0.001,0.001
28/04/2023,05:21:08,0.006,0.0,0.001,0.0
28/04/2023,05:22:08,0.010,0.0,0.001,0.0
28/04/2023,05:23:08,0.011,0.0,0.001,0.0
28/04/2023,05:24:09,0.011,0.0,0.001,0.0
28/04/2023,05:25:08,0.013,0.0,0.001,0.0
28/04/2023,05:26:07,0.014,0.0,0.002,0.001
28/04/2023,05:27:08,0.012,0.0,0.002,0.0
28/04/2023,05:28:08,0.014,0.0,0.002,0.0
28/04/2023,05:29:08,0.014,0.0,0.002,0.0
28/04/2023,05:30:08,0.013,0.0,0.002,0.0
28/04/2023,05:31:08,0.013,0.0,0.003,0.001
28/04/2023,05:32:08,0.014,0.0,0.003,0.0
28/04/2023,05:33:08,0.014,0.0,0.003,0.0
28/04/2023,05:34:08,0.014,0.0,0.003,0.0
28/04/2023,05:35:08,0.014,0.0,0.004,0.001
28/04/2023,05:36:08,0.016,0.0,0.004,0.0
28/04/2023,05:37:08,0.016,0.0,0.004,0.0
28/04/2023,05:38:08,0.016,0.0,0.004,0.0
28/04/2023,05:39:08,0.018,0.0,0.005,0.001
28/04/2023,05:40:08,0.023,0.0,0.005,0.0
28/04/2023,05:41:08,0.026,0.0,0.005,0.0
28/04/2023,05:42:08,0.026,0.0,0.006,0.001
28/04/2023,05:43:08,0.026,0.0,0.006,0.0
28/04/2023,05:44:08,0.029,0.0,0.007,0.001
28/04/2023,05:45:08,0.029,0.0,0.007,0.0
28/04/2023,05:46:08,0.024,0.0,0.008,0.001
28/04/2023,05:47:08,0.021,0.0,0.008,0.0
28/04/2023,05:48:08,0.021,0.0,0.008,0.0
28/04/2023,05:49:09,0.019,0.0,0.009,0.001
28/04/2023,05:50:08,0.022,0.0,0.009,0.0
28/04/2023,05:51:08,0.024,0.0,0.009,0.0
28/04/2023,05:52:09,0.025,0.0,0.01,0.001
28/04/2023,05:53:07,0.026,0.0,0.01,0.0
28/04/2023,05:54:08,0.025,0.0,0.011,0.001
28/04/2023,05:55:09,0.028,0.0,0.011,0.0
28/04/2023,05:56:08,0.030,0.0,0.012,0.001
28/04/2023,05:57:08,0.032,0.0,0.012,0.0
28/04/2023,05:58:08,0.035,0.0,0.013,0.001
28/04/2023,05:59:08,0.035,0.0,0.013,0.0
28/04/2023,06:00:09,0.035,0.0,0.014,0.001
28/04/2023,06:01:09,0.034,0.0,0.014,0.0
28/04/2023,06:02:08,0.032,0.0,0.015,0.001
28/04/2023,06:03:08,0.031,0.0,0.015,0.0
28/04/2023,06:04:08,0.030,0.0,0.016,0.001
28/04/2023,06:05:08,0.030,0.0,0.016,0.0
28/04/2023,06:06:08,0.033,0.0,0.017,0.001
28/04/2023,06:07:08,0.035,0.0,0.018,0.001
28/04/2023,06:08:08,0.036,0.0,0.018,0.0
28/04/2023,06:09:08,0.039,0.0,0.019,0.001
28/04/2023,06:10:08,0.037,0.0,0.019,0.0
28/04/2023,06:11:07,0.040,0.0,0.02,0.001
28/04/2023,06:12:08,0.035,0.0,0.021,0.001
28/04/2023,06:13:08,0.034,0.0,0.021,0.0
28/04/2023,06:14:08,0.032,0.0,0.022,0.001
28/04/2023,06:15:08,0.033,0.0,0.022,0.0
28/04/2023,06:16:08,0.028,0.0,0.023,0.001
28/04/2023,06:17:08,0.026,0.0,0.023,0.0
28/04/2023,06:18:08,0.023,0.0,0.024,0.001
28/04/2023,06:19:08,0.024,0.0,0.024,0.0
28/04/2023,06:20:08,0.023,0.0,0.024,0.0
28/04/2023,06:21:08,0.027,0.0,0.025,0.001
28/04/2023,06:22:08,0.027,0.0,0.025,0.0
28/04/2023,06:23:08,0.030,0.0,0.026,0.001
28/04/2023,06:24:08,0.030,0.0,0.026,0.0
28/04/2023,06:25:08,0.032,0.0,0.027,0.001
28/04/2023,06:26:08,0.031,0.0,0.027,0.0
28/04/2023,06:27:08,0.031,0.0,0.028,0.001
28/04/2023,06:28:08,0.032,0.0,0.028,0.0
28/04/2023,06:29:08,0.035,0.0,0.029,0.001
28/04/2023,06:30:09,0.036,0.0,0.03,0.001
28/04/2023,06:31:08,0.038,0.0,0.03,0.0
28/04/2023,06:32:08,0.038,0.0,0.031,0.001
28/04/2023,06:33:08,0.039,0.0,0.031,0.0
28/04/2023,06:34:08,0.045,0.0,0.032,0.001
28/04/2023,06:35:08,0.048,0.0,0.033,0.001
28/04/2023,06:36:08,0.050,0.0,0.034,0.001
28/04/2023,06:37:08,0.050,0.0,0.035,0.001
28/04/2023,06:38:08,0.052,0.0,0.035,0.0
28/04/2023,06:39:08,0.054,0.0,0.036,0.001
28/04/2023,06:40:09,0.060,0.0,0.037,0.001
28/04/2023,06:41:08,0.066,0.0,0.038,0.001
28/04/2023,06:42:08,0.065,0.0,0.039,0.001
28/04/2023,06:43:08,0.071,0.0,0.041,0.002
28/04/2023,06:44:08,0.066,0.0,0.042,0.001
28/04/2023,06:45:08,0.073,0.0,0.043,0.001
28/04/2023,06:46:08,0.073,0.0,0.044,0.001
28/04/2023,06:47:08,0.067,0.0,0.045,0.001
28/04/2023,06:48:08,0.068,0.0,0.046,0.001
28/04/2023,06:49:08,0.075,0.0,0.048,0.002
28/04/2023,06:50:37,0.075,0.0,0.049,0.001
28/04/2023,06:52:09,0.074,0.0,0.051,0.002
28/04/2023,06:53:08,0.079,0.0,0.053,0.002
28/04/2023,06:54:09,0.088,0.0,0.054,0.001
28/04/2023,06:55:08,0.088,0.0,0.055,0.001
28/04/2023,06:56:08,0.097,0.0,0.057,0.002
28/04/2023,06:57:09,0.091,0.0,0.059,0.002
28/04/2023,06:58:08,0.087,0.0,0.06,0.001
28/04/2023,06:59:09,0.083,0.0,0.061,0.001
28/04/2023,07:00:08,0.093,0.0,0.063,0.002
28/04/2023,07:01:08,0.089,0.0,0.064,0.001
28/04/2023,07:02:08,0.085,0.0,0.066,0.002
28/04/2023,07:03:08,0.080,0.0,0.067,0.001
28/04/2023,07:04:08,0.082,0.0,0.069,0.002
28/04/2023,07:05:09,0.086,0.0,0.07,0.001
28/04/2023,07:06:08,0.091,0.0,0.071,0.001
28/04/2023,07:07:08,0.088,0.0,0.073,0.002
28/04/2023,07:08:08,0.081,0.0,0.074,0.001
28/04/2023,07:09:08,0.081,0.0,0.076,0.002
28/04/2023,07:10:08,0.078,0.0,0.077,0.001
28/04/2023,07:11:08,0.088,0.0,0.078,0.001
28/04/2023,07:12:09,0.088,0.0,0.08,0.002
28/04/2023,07:13:08,0.089,0.0,0.081,0.001
28/04/2023,07:14:09,0.090,0.0,0.083,0.002
28/04/2023,07:15:08,0.090,0.0,0.084,0.001
28/04/2023,07:16:09,0.086,0.0,0.086,0.002
28/04/2023,07:17:08,0.087,0.0,0.087,0.001
28/04/2023,07:18:08,0.095,0.0,0.089,0.002
28/04/2023,07:19:09,0.087,0.0,0.09,0.001
28/04/2023,07:20:09,0.082,0.0,0.092,0.002
28/04/2023,07:21:08,0.081,0.0,0.093,0.001
28/04/2023,07:22:08,0.080,0.0,0.094,0.001
28/04/2023,07:23:08,0.074,0.0,0.096,0.002
28/04/2023,07:24:09,0.077,0.0,0.097,0.001
28/04/2023,07:25:08,0.071,0.0,0.098,0.001
28/04/2023,07:26:08,0.074,0.0,0.099,0.001
28/04/2023,07:27:09,0.076,0.0,0.101,0.002
28/04/2023,07:28:08,0.085,0.0,0.102,0.001
28/04/2023,07:29:09,0.098,0.0,0.104,0.002
28/04/2023,07:30:08,0.111,0.0,0.105,0.001
28/04/2023,07:31:08,0.120,0.0,0.107,0.002
28/04/2023,07:32:08,0.139,0.0,0.109,0.002
28/04/2023,07:33:08,0.153,0.0,0.112,0.003
28/04/2023,07:34:08,0.176,0.0,0.114,0.002
28/04/2023,07:35:08,0.190,0.0,0.118,0.004
28/04/2023,07:36:08,0.204,0.0,0.121,0.003
28/04/2023,07:37:08,0.201,0.0,0.124,0.003
28/04/2023,07:38:08,0.191,0.0,0.127,0.003
28/04/2023,07:39:08,0.190,0.0,0.131,0.004
28/04/2023,07:40:08,0.173,0.0,0.134,0.003
28/04/2023,07:41:08,0.167,0.0,0.136,0.002
28/04/2023,07:42:08,0.149,0.0,0.139,0.003
28/04/2023,07:43:08,0.144,0.0,0.142,0.003
28/04/2023,07:44:08,0.156,0.0,0.144,0.002
28/04/2023,07:45:08,0.162,0.0,0.147,0.003
28/04/2023,07:46:09,0.160,0.0,0.149,0.002
28/04/2023,07:47:07,0.143,0.0,0.152,0.003
28/04/2023,07:48:09,0.130,0.0,0.154,0.002
28/04/2023,07:49:08,0.135,0.0,0.156,0.002
28/04/2023,07:50:08,0.151,0.0,0.159,0.003
28/04/2023,07:51:08,0.135,0.0,0.161,0.002
28/04/2023,07:52:08,0.139,0.0,0.163,0.002
28/04/2023,07:53:09,0.135,0.0,0.166,0.003
28/04/2023,07:54:09,0.137,0.0,0.168,0.002
28/04/2023,07:55:08,0.133,0.0,0.17,0.002
28/04/2023,07:56:08,0.136,0.0,0.172,0.002
28/04/2023,07:57:08,0.152,0.0,0.175,0.003
28/04/2023,07:58:10,0.171,0.0,0.178,0.003
28/04/2023,07:59:08,0.177,0.0,0.18,0.002
28/04/2023,08:00:08,0.187,0.0,0.183,0.003
28/04/2023,08:01:09,0.196,0.0,0.187,0.004
28/04/2023,08:02:09,0.185,0.0,0.19,0.003
28/04/2023,08:03:09,0.192,0.0,0.193,0.003
28/04/2023,08:04:09,0.209,0.0,0.196,0.003
28/04/2023,08:05:08,0.238,1.0,0.2,0.004
28/04/2023,08:06:08,0.229,1.0,0.204,0.004
28/04/2023,08:07:08,0.247,1.0,0.208,0.004
28/04/2023,08:08:08,0.194,0.0,0.211,0.003
28/04/2023,08:09:08,0.215,0.0,0.215,0.004
28/04/2023,08:10:08,0.240,1.0,0.219,0.004
28/04/2023,08:11:09,0.230,1.0,0.223,0.004
28/04/2023,08:12:09,0.263,1.0,0.227,0.004
28/04/2023,08:13:08,0.246,1.0,0.231,0.004
28/04/2023,08:14:08,0.259,1.0,0.235,0.004
28/04/2023,08:15:09,0.290,1.0,0.24,0.005
28/04/2023,08:16:09,0.295,1.0,0.245,0.005
28/04/2023,08:17:09,0.304,1.0,0.249,0.004
28/04/2023,08:18:08,0.298,1.0,0.255,0.006
28/04/2023,08:19:08,0.233,1.0,0.259,0.004
28/04/2023,08:20:08,0.235,1.0,0.263,0.004
28/04/2023,08:21:08,0.236,1.0,0.267,0.004
28/04/2023,08:22:08,0.266,1.0,0.271,0.004
28/04/2023,08:23:08,0.280,1.0,0.276,0.005
28/04/2023,08:24:08,0.268,1.0,0.28,0.004
28/04/2023,08:25:08,0.271,1.0,0.285,0.005
28/04/2023,08:26:08,0.270,1.0,0.289,0.004
28/04/2023,08:27:09,0.292,1.0,0.294,0.005
28/04/2023,08:28:08,0.263,1.0,0.299,0.005
28/04/2023,08:29:09,0.305,1.0,0.303,0.004
28/04/2023,08:30:08,0.321,1.0,0.309,0.006
28/04/2023,08:31:08,0.300,1.0,0.314,0.005
28/04/2023,08:32:08,0.271,1.0,0.318,0.004
28/04/2023,08:33:08,0.286,1.0,0.323,0.005
28/04/2023,08:34:08,0.321,1.0,0.328,0.005
28/04/2023,08:35:09,0.397,1.0,0.334,0.006
28/04/2023,08:36:08,0.419,1.0,0.341,0.007
28/04/2023,08:37:08,0.444,1.0,0.348,0.007
28/04/2023,08:38:08,0.407,1.0,0.355,0.007
28/04/2023,08:39:08,0.459,1.0,0.363,0.008
28/04/2023,08:40:09,0.463,1.0,0.37,0.007
28/04/2023,08:41:09,0.421,1.0,0.378,0.008
28/04/2023,08:42:09,0.353,1.0,0.384,0.006
28/04/2023,08:43:09,0.407,1.0,0.39,0.006
28/04/2023,08:44:09,0.500,1.0,0.398,0.008
28/04/2023,08:45:09,0.541,1.0,0.407,0.009
28/04/2023,08:46:09,0.534,1.0,0.416,0.009
28/04/2023,08:47:08,0.519,1.0,0.424,0.008
28/04/2023,08:48:08,0.539,1.0,0.433,0.009
28/04/2023,08:49:08,0.539,1.0,0.442,0.009
28/04/2023,08:50:08,0.491,1.0,0.451,0.009
28/04/2023,08:51:08,0.481,1.0,0.459,0.008
28/04/2023,08:52:09,0.493,1.0,0.467,0.008
28/04/2023,08:53:09,0.488,1.0,0.475,0.008
28/04/2023,08:54:09,0.552,1.0,0.484,0.009
28/04/2023,08:55:09,0.591,1.0,0.493,0.009
28/04/2023,08:56:08,0.612,1.0,0.503,0.01
28/04/2023,08:57:08,0.570,1.0,0.513,0.01
28/04/2023,08:58:08,0.532,1.0,0.522,0.009
28/04/2023,08:59:09,0.567,1.0,0.531,0.009
28/04/2023,09:00:09,0.582,1.0,0.541,0.01
28/04/2023,09:01:08,0.577,1.0,0.55,0.009
28/04/2023,09:02:08,0.576,1.0,0.56,0.01
28/04/2023,09:03:08,0.525,1.0,0.569,0.009
28/04/2023,09:04:08,0.509,1.0,0.578,0.009
28/04/2023,09:05:08,0.475,1.0,0.586,0.008
28/04/2023,09:06:08,0.483,1.0,0.594,0.008
28/04/2023,09:07:09,0.465,1.0,0.602,0.008
28/04/2023,09:08:08,0.490,1.0,0.61,0.008
28/04/2023,09:09:08,0.479,1.0,0.618,0.008
28/04/2023,09:10:09,0.512,1.0,0.626,0.008
28/04/2023,09:11:09,0.469,1.0,0.634,0.008
28/04/2023,09:12:09,0.417,1.0,0.642,0.008
28/04/2023,09:13:09,0.464,1.0,0.649,0.007
28/04/2023,09:14:08,0.430,1.0,0.657,0.008
28/04/2023,09:15:08,0.340,1.0,0.663,0.006
28/04/2023,09:16:09,0.300,1.0,0.668,0.005
28/04/2023,09:17:09,0.316,1.0,0.673,0.005
28/04/2023,09:18:09,0.283,1.0,0.678,0.005
28/04/2023,09:19:09,0.262,1.0,0.683,0.005
28/04/2023,09:20:09,0.283,1.0,0.687,0.004
28/04/2023,09:21:09,0.301,1.0,0.692,0.005
28/04/2023,09:22:08,0.360,1.0,0.698,0.006
28/04/2023,09:23:09,0.410,1.0,0.704,0.006
28/04/2023,09:24:09,0.466,1.0,0.711,0.007
28/04/2023,09:25:09,0.584,1.0,0.72,0.009
28/04/2023,09:26:08,0.627,1.0,0.73,0.01
28/04/2023,09:27:09,0.675,2.0,0.741,0.011
28/04/2023,09:28:10,0.652,2.0,0.753,0.012
28/04/2023,09:29:09,0.632,1.0,0.763,0.01
28/04/2023,09:30:08,0.602,1.0,0.774,0.011
28/04/2023,09:31:08,0.524,1.0,0.783,0.009
28/04/2023,09:32:08,0.457,1.0,0.791,0.008
28/04/2023,09:33:09,0.458,1.0,0.799,0.008
28/04/2023,09:34:10,0.450,1.0,0.807,0.008
28/04/2023,09:35:08,0.379,1.0,0.813,0.006
28/04/2023,09:36:08,0.399,1.0,0.82,0.007
28/04/2023,09:37:08,0.371,1.0,0.826,0.006
28/04/2023,09:38:08,0.356,1.0,0.832,0.006
28/04/2023,09:39:06,0.404,1.0,0.838,0.006
28/04/2023,09:40:08,0.435,1.0,0.845,0.007
28/04/2023,09:41:07,0.557,1.0,0.854,0.009
28/04/2023,09:42:31,0.706,2.0,0.868,0.014
28/04/2023,09:44:09,0.701,2.0,0.889,0.021
28/04/2023,09:45:08,0.571,1.0,0.899,0.01
28/04/2023,09:46:08,0.499,1.0,0.908,0.009
28/04/2023,09:47:08,0.512,1.0,0.916,0.008
28/04/2023,09:48:09,0.602,1.0,0.925,0.009
28/04/2023,09:49:09,0.726,2.0,0.936,0.011
28/04/2023,09:50:09,0.800,2.0,0.949,0.013
28/04/2023,09:51:08,0.835,2.0,0.963,0.014
28/04/2023,09:52:08,0.878,2.0,0.977,0.014
28/04/2023,09:53:08,0.944,2.0,0.992,0.015
28/04/2023,09:54:09,0.979,2.0,1.008,0.016
28/04/2023,09:55:09,1.113,3.0,1.025,0.017
28/04/2023,09:56:09,0.953,2.0,1.042,0.017
28/04/2023,09:57:08,0.819,2.0,1.057,0.015
28/04/2023,09:58:08,0.764,2.0,1.07,0.013
28/04/2023,09:59:08,0.881,2.0,1.084,0.014
28/04/2023,10:00:09,0.942,2.0,1.099,0.015
28/04/2023,10:01:09,0.964,2.0,1.115,0.016
28/04/2023,10:02:08,0.896,2.0,1.13,0.015